Weather History for Colby, KS

Change the Weather History Date:

Monday, February 4, 2013

  Actual Average (KGLD) Record (KGLD)
Temperature  
Mean Temperature 40 °F 30 °F  
Max Temperature 57 °F 43 °F 68 °F (1935)
Min Temperature 24 °F 18 °F -15 °F (1985)
Degree Days  
Heating Degree Days 24 35  
Month to date heating degree days 140  
Since 1 July heating degree days 3643  
Cooling Degree Days 0 0  
Month to date cooling degree days 0  
Year to date cooling degree days 0  
Moisture  
Dew Point 24 °F    
Average Humidity 59    
Maximum Humidity 93    
Minimum Humidity 27    
Precipitation  
Precipitation 0.00 in 0.01 in 0.79 in (1924)
Month to date precipitation 0.06  
Year to date precipitation 0.44  
Snow  
Snow 0.00 in 0.20 in - ()
Month to date snowfall 0.8  
Since 1 July snowfall 19.4  
Snow Depth -    
Sea Level Pressure  
Sea Level Pressure 29.91 in    
Wind  
Wind Speed 10 mph (West)    
Max Wind Speed 14 mph    
Max Gust Speed 22 mph    
Visibility 10 miles    
Events      
T = Trace of Precipitation, MM = Missing Value Source: NWS Daily Summary

Daily Weather History Graph

Daily Weather History Graph

Search for Another Location

Airport:

Trip Planner

Search our weather history database for the weather conditions in past years. The results will help you decide how hot, cold, wet, or windy it might be!

Date:

Astronomy

Feb. 04, 2013 Rise Set
Actual Time 7:48 AM CST 6:08 PM CST
Civil Twilight 7:20 AM CST 6:36 PM CST
Nautical Twilight 6:48 AM CST 7:08 PM CST
Astronomical Twilight 6:16 AM CST 7:40 PM CST
Moon 2:25 AM CST (2/4) 12:34 PM CST (2/4)
Length of Visible Light 11h 16m
Length of Day
10h 20m
Last Quarter, 37% of the Moon is Illuminated
Feb 4
Last Quarter
Feb 10
New
Feb 17
First Quarter
Feb 25
Full
Mar 4
Last Quarter

Hourly Weather History & Observations

Time (CST) Temp. Windchill Dew Point Humidity Pressure Visibility Wind Dir Wind Speed Gust Speed Precip Events Conditions
12:15 AM 35.6 °F 26.6 °F 26.6 °F 70% 29.86 in 10.0 mi WNW 13.8 mph - N/A   Clear
12:35 AM 33.8 °F 24.3 °F 26.6 °F 75% 29.85 in 10.0 mi WNW 13.8 mph - N/A   Clear
12:55 AM 33.8 °F 24.8 °F 26.6 °F 75% 29.86 in 10.0 mi NW 12.7 mph - N/A   Clear
1:15 AM 32.0 °F 22.5 °F 24.8 °F 75% 29.87 in 10.0 mi NW 12.7 mph - N/A   Clear
1:35 AM 32.0 °F 23.0 °F 24.8 °F 75% 29.88 in 10.0 mi NW 11.5 mph - N/A   Clear
1:55 AM 32.0 °F 23.6 °F 24.8 °F 75% 29.89 in 10.0 mi NW 10.4 mph - N/A   Clear
2:15 AM 32.0 °F 22.1 °F 26.6 °F 80% 29.89 in 10.0 mi NW 13.8 mph - N/A   Clear
2:35 AM 32.0 °F 22.1 °F 26.6 °F 80% 29.90 in 10.0 mi NW 13.8 mph - N/A   Clear
2:55 AM 32.0 °F 22.1 °F 24.8 °F 75% 29.91 in 10.0 mi NW 13.8 mph - N/A   Clear
3:15 AM 32.0 °F 22.1 °F 24.8 °F 75% 29.92 in 10.0 mi NW 13.8 mph - N/A   Clear
4:55 AM 30.2 °F 21.3 °F 24.8 °F 80% 29.94 in 10.0 mi NW 10.4 mph - N/A   Clear
5:15 AM 28.4 °F 19.1 °F 24.8 °F 86% 29.95 in 10.0 mi NW 10.4 mph - N/A   Clear
5:35 AM 28.4 °F 18.5 °F 24.8 °F 86% 29.95 in 10.0 mi NW 11.5 mph - N/A   Clear
5:55 AM 28.4 °F 18.0 °F 24.8 °F 86% 29.95 in 10.0 mi NW 12.7 mph - N/A   Clear
6:15 AM 28.4 °F 18.5 °F 24.8 °F 86% 29.95 in 10.0 mi NW 11.5 mph - N/A   Clear
6:35 AM 28.4 °F 19.7 °F 24.8 °F 86% 29.96 in 10.0 mi NW 9.2 mph - N/A   Clear
6:55 AM 26.6 °F 17.5 °F 23.0 °F 86% 29.97 in 10.0 mi NW 9.2 mph - N/A   Clear
7:15 AM 26.6 °F 17.5 °F 23.0 °F 86% 29.96 in 10.0 mi WNW 9.2 mph - N/A   Clear
7:35 AM 24.8 °F 17.9 °F 23.0 °F 93% 29.97 in 10.0 mi WSW 5.8 mph - N/A   Clear
7:55 AM 26.6 °F 17.5 °F 23.0 °F 86% 29.97 in 10.0 mi WNW 9.2 mph - N/A   Clear
8:15 AM 26.6 °F 16.8 °F 23.0 °F 86% 29.98 in 10.0 mi WNW 10.4 mph - N/A   Clear
8:35 AM 28.4 °F 19.1 °F 23.0 °F 80% 29.97 in 10.0 mi WNW 10.4 mph - N/A   Clear
8:55 AM 32.0 °F 24.2 °F 26.6 °F 80% 29.98 in 10.0 mi NW 9.2 mph - N/A   Clear
9:15 AM 33.8 °F 27.7 °F 26.6 °F 75% 29.97 in 10.0 mi NW 6.9 mph - N/A   Clear
9:35 AM 35.6 °F 28.6 °F 28.4 °F 75% 29.97 in 10.0 mi NW 9.2 mph - N/A   Clear
9:55 AM 37.4 °F 30.3 °F 28.4 °F 70% 29.98 in 10.0 mi NW 10.4 mph - N/A   Clear
10:15 AM 41.0 °F 34.7 °F 28.4 °F 61% 29.98 in 10.0 mi NW 10.4 mph - N/A   Clear
10:35 AM 42.8 °F 38.6 °F 28.4 °F 57% 29.98 in 10.0 mi NW 6.9 mph - N/A   Clear
10:55 AM 44.6 °F 41.4 °F 28.4 °F 53% 29.98 in 10.0 mi North 5.8 mph - N/A   Clear
11:15 AM 44.6 °F 43.1 °F 28.4 °F 53% 29.98 in 10.0 mi North 3.5 mph - N/A   Clear
11:35 AM 44.6 °F - 28.4 °F 53% 29.97 in 10.0 mi Calm Calm - N/A   Clear
11:55 AM 46.4 °F - 26.6 °F 46% 29.97 in 10.0 mi Calm Calm - N/A   Clear
12:15 PM 46.4 °F - 26.6 °F 46% 29.96 in 10.0 mi Calm Calm - N/A   Clear
12:35 PM 48.2 °F - 26.6 °F 43% 29.96 in 10.0 mi Calm Calm - N/A   Clear
12:55 PM 50.0 °F - 26.6 °F 40% 29.95 in 10.0 mi Calm Calm - N/A   Clear
1:15 PM 51.8 °F - 26.6 °F 38% 29.94 in 10.0 mi South 9.2 mph - N/A   Clear
1:35 PM 53.6 °F - 26.6 °F 35% 29.92 in 10.0 mi SW 8.1 mph - N/A   Clear
1:55 PM 53.6 °F - 26.6 °F 35% 29.91 in 10.0 mi WSW 10.4 mph 17.3 mph N/A   Clear
2:15 PM 53.6 °F - 26.6 °F 35% 29.89 in 10.0 mi SW 12.7 mph 17.3 mph N/A   Clear
2:35 PM 55.4 °F - 26.6 °F 33% 29.88 in 10.0 mi South 12.7 mph 18.4 mph N/A   Clear
2:55 PM 55.4 °F - 26.6 °F 33% 29.87 in 10.0 mi SSW 13.8 mph 17.3 mph N/A   Clear
3:15 PM 55.4 °F - 24.8 °F 31% 29.86 in 10.0 mi WSW 8.1 mph 21.9 mph N/A   Clear
3:35 PM 55.4 °F - 24.8 °F 31% 29.86 in 10.0 mi SSW 10.4 mph 17.3 mph N/A   Clear
3:55 PM 55.4 °F - 24.8 °F 31% 29.85 in 10.0 mi SSW 11.5 mph 18.4 mph N/A   Clear
4:15 PM 55.4 °F - 24.8 °F 31% 29.85 in 10.0 mi SSW 11.5 mph - N/A   Clear
4:35 PM 57.2 °F - 23.0 °F 27% 29.85 in 10.0 mi SW 11.5 mph - N/A   Clear
4:55 PM 55.4 °F - 23.0 °F 29% 29.84 in 10.0 mi SSW 9.2 mph - N/A   Clear
5:15 PM 55.4 °F - 23.0 °F 29% 29.84 in 10.0 mi SSW 8.1 mph - N/A   Clear
5:35 PM 53.6 °F - 23.0 °F 30% 29.84 in 10.0 mi SSW 5.8 mph - N/A   Clear
5:55 PM 51.8 °F - 23.0 °F 33% 29.84 in 10.0 mi SSW 6.9 mph - N/A   Clear
6:15 PM 48.2 °F - 21.2 °F 34% 29.84 in 10.0 mi SSW 5.8 mph - N/A   Clear
6:35 PM 44.6 °F 42.2 °F 21.2 °F 39% 29.85 in 10.0 mi SSW 4.6 mph - N/A   Clear
6:55 PM 41.0 °F 37.1 °F 19.4 °F 42% 29.85 in 10.0 mi SSW 5.8 mph - N/A   Clear
7:15 PM 37.4 °F 32.1 °F 19.4 °F 48% 29.86 in 10.0 mi SW 6.9 mph - N/A   Clear
7:35 PM 33.8 °F 26.4 °F 19.4 °F 56% 29.85 in 10.0 mi SW 9.2 mph - N/A   Clear
7:55 PM 32.0 °F 24.2 °F 19.4 °F 60% 29.86 in 10.0 mi SW 9.2 mph - N/A   Clear
8:15 PM 33.8 °F 26.4 °F 19.4 °F 56% 29.86 in 10.0 mi SW 9.2 mph - N/A   Clear
8:35 PM 33.8 °F 27.7 °F 19.4 °F 56% 29.86 in 10.0 mi WSW 6.9 mph - N/A   Clear
8:55 PM 33.8 °F 26.4 °F 19.4 °F 56% 29.86 in 10.0 mi WSW 9.2 mph - N/A   Clear
9:15 PM 30.2 °F 24.3 °F 19.4 °F 64% 29.86 in 10.0 mi WSW 5.8 mph - N/A   Clear
9:35 PM 30.2 °F 22.6 °F 19.4 °F 64% 29.87 in 10.0 mi WSW 8.1 mph - N/A   Clear
9:55 PM 33.8 °F 24.8 °F 19.4 °F 56% 29.88 in 10.0 mi West 12.7 mph 21.9 mph N/A   Clear
10:15 PM 32.0 °F 23.6 °F 19.4 °F 60% 29.88 in 10.0 mi SW 10.4 mph - N/A   Clear
10:35 PM 32.0 °F 24.2 °F 19.4 °F 60% 29.88 in 10.0 mi SW 9.2 mph - N/A   Clear
10:55 PM 32.0 °F 24.8 °F 19.4 °F 60% 29.88 in 10.0 mi SW 8.1 mph - N/A   Clear
11:15 PM 32.0 °F 23.6 °F 19.4 °F 60% 29.89 in 10.0 mi WSW 10.4 mph - N/A   Clear
11:35 PM 32.0 °F 23.6 °F 19.4 °F 60% 29.88 in 10.0 mi WSW 10.4 mph - N/A   Clear
11:55 PM 32.0 °F 23.6 °F 21.2 °F 64% 29.90 in 10.0 mi West 10.4 mph - N/A   Clear